Dewpoint
72 72 73 73 74 74 75 74 73 74 72 70 67 67 67 68 66 65 67 65 67 65 65 68 69 68 69 71 68 78 76 76 72 77 78 77 76 76 75 75 75 73 74 72 71 70 73 73 73 74 75 72 72 71 70 69 70 70 72 72 71 73 74 71 69 67 69 70 70 72 72 73 73 73 72 75 76 76 74 75 75 75 75 75 75
74 73 73 74 74 73 73 74 74 74 70 68 67 68 66 66 67 70 67 70 69 66 68 64 65 66 65 71 71 73 78 78 76 75 75 77 75 72 73 75 75 74 75 74 74 73 73 74 74 72 74 73 72 71 70 71 70 70 71 71 71 71 71 70 69 68 67 70 70 72 74 73 72 72 73 72 73 75 75 75 75 75 75 75 75
73 74 73 73 74 73 73 73 74 75 72 72 71 73 68 66 70 66 67 66 68 68 65 64 68 69 70 73 74 74 78 77 77 78 77 76 74 73 73 72 73 72 72 74 74 75 73 74 74 74 74 73 73 72 72 72 72 71 71 72 73 72 72 72 70 68 68 68 69 70 72 73 73 71 73 74 74 74 74 75 75 75 75 75 74
73 74 73 73 75 74 74 74 74 74 72 75 76 77 73 74 74 73 75 73 69 73 70 67 78 78 76 75 76 77 77 77 76 76 76 76 75 75 75 74 73 71 73 73 73 73 74 73 73 73 74 73 73 73 74 74 72 71 72 72 73 72 72 71 71 69 68 68 70 71 72 72 72 74 74 74 74 74 74 74 76 75 75 75 75
74 74 74 74 74 74 75 76 76 76 73 74 75 75 76 76 77 77 77 76 75 75 75 76 75 77 75 75 76 76 76 76 75 75 76 76 74 74 73 72 73 73 73 72 73 72 72 71 72 73 73 72 73 73 74 72 72 72 72 72 73 73 72 71 71 71 70 69 69 71 72 71 72 73 74 73 72 73 73 73 74 75 75 74 74
73 73 73 73 74 74 74 75 77 77 76 76 75 75 76 76 77 77 78 78 77 78 77 76 73 73 75 74 74 75 75 74 75 76 75 74 74 74 73 73 73 72 72 72 73 72 72 71 72 72 71 71 71 73 73 72 72 73 73 73 73 72 72 72 72 72 71 70 70 70 71 71 70 71 72 73 72 71 71 72 73 74 74 72 72
73 73 73 73 73 73 73 74 75 77 78 77 76 75 76 76 75 77 78 78 78 78 77 75 74 73 75 75 74 74 73 73 73 74 74 73 73 73 73 71 72 72 72 72 72 73 73 72 72 72 72 72 72 72 73 73 73 72 72 73 72 71 71 72 71 70 70 70 70 70 70 72 71 70 72 73 72 72 71 70 70 72 73 73 72
73 73 74 74 74 73 73 74 75 76 78 77 76 76 76 77 78 78 78 78 78 78 77 77 77 76 77 75 74 73 72 72 74 73 74 74 74 72 71 70 72 72 71 71 72 73 73 74 74 74 73 73 72 73 73 73 72 72 73 73 71 72 71 71 71 69 69 69 69 69 70 70 70 72 72 72 71 72 72 70 69 69 69 71 71
75 75 75 75 74 74 74 74 76 77 77 76 76 76 76 76 77 77 77 77 77 78 78 77 76 76 74 75 73 73 73 73 73 73 73 73 73 72 72 72 72 72 72 72 73 73 74 74 74 74 73 72 72 73 72 72 71 72 72 72 72 72 72 71 71 69 69 70 69 69 69 69 69 69 70 70 69 69 70 70 68 69 70 70 70
75 75 75 75 75 76 76 76 77 77 76 76 76 76 76 76 76 75 75 76 78 78 77 77 76 75 75 74 74 73 73 73 74 73 73 74 73 73 73 73 73 73 72 73 73 73 74 73 73 73 73 73 72 72 72 73 73 73 73 73 72 72 71 71 70 70 69 69 68 68 67 67 69 68 69 70 70 71 70 69 68 69 70 69 69
75 75 75 75 76 77 76 76 77 77 77 77 76 76 77 76 75 75 76 75 76 77 76 73 73 75 74 74 73 73 72 74 74 71 72 74 74 74 73 74 74 73 73 72 72 72 72 73 73 73 72 72 72 71 72 72 73 73 73 73 73 72 71 70 70 70 69 68 69 69 68 68 69 70 69 69 71 70 69 69 69 69 69 68 67
75 75 75 76 75 75 74 75 76 76 76 76 77 77 76 76 75 74 74 74 74 74 73 74 74 75 73 73 73 72 73 72 68 70 70 70 73 74 73 72 73 73 72 73 73 72 72 72 72 73 72 72 72 72 72 71 71 72 73 73 73 73 72 72 71 70 70 69 69 69 69 69 69 70 69 70 70 70 70 69 69 69 68 68 67
75 75 76 75 74 74 74 74 75 76 76 76 76 76 76 75 73 73 73 73 72 71 71 73 74 74 73 72 72 72 71 69 67 68 68 68 70 73 72 72 73 73 73 72 72 73 73 73 72 73 72 71 69 69 69 69 69 69 71 72 73 73 71 71 72 71 71 70 69 69 70 69 69 69 70 70 71 69 68 67 67 67 66 66 66
75 75 75 75 75 74 75 74 74 75 75 76 76 75 73 73 73 72 72 73 73 72 73 73 73 73 73 73 73 73 71 69 66 67 67 67 68 71 71 72 73 72 72 72 72 72 71 70 70 71 71 69 67 67 67 68 68 69 71 72 73 72 72 71 72 72 71 70 70 68 69 70 70 70 71 70 69 68 67 66 66 66 66 66 67
75 75 74 74 75 75 75 74 74 75 75 76 75 73 73 73 72 72 72 73 72 72 74 74 73 72 73 74 72 71 69 66 66 66 65 65 67 72 72 72 72 73 73 72 72 71 70 69 70 69 71 68 65 66 66 66 67 69 70 71 72 73 73 73 72 71 71 69 67 67 67 68 69 69 69 70 69 68 68 67 67 67 68 68 67
75 75 75 75 76 76 75 75 75 75 75 75 73 72 72 72 71 73 73 73 73 74 74 74 72 72 71 72 71 69 67 63 64 64 63 63 67 74 73 73 72 72 71 72 72 72 72 71 70 70 70 69 65 63 64 66 67 68 69 69 69 70 74 74 70 68 69 70 69 68 65 66 66 68 68 68 69 71 69 69 69 68 68 67 65
73 75 75 75 76 76 75 75 75 74 73 72 71 72 72 73 73 73 72 72 72 73 73 73 74 73 72 72 71 70 69 63 60 61 61 61 69 73 73 73 71 70 70 71 72 71 72 71 69 68 67 67 63 60 61 66 67 67 68 68 68 67 68 69 66 65 64 63 63 63 62 60 61 61 62 63 65 67 67 68 67 65 65 64 64
74 75 75 75 76 75 74 74 72 72 72 72 72 72 73 74 73 73 73 72 73 73 73 73 74 73 72 72 72 71 68 64 60 59 59 60 67 73 73 72 71 73 72 69 73 72 70 71 69 66 65 64 59 59 59 65 66 67 67 66 65 66 65 64 63 65 64 64 64 63 64 64 65 66 66 65 65 67 67 66 65 65 65 64 62
75 75 74 73 73 74 74 73 72 72 72 72 71 70 71 73 73 74 74 73 72 73 72 72 72 73 73 73 72 70 68 65 58 58 59 60 67 73 74 72 72 70 70 69 71 71 68 69 69 66 64 61 58 58 59 62 65 66 66 65 65 65 63 63 64 65 65 65 66 67 68 67 68 68 69 69 69 68 68 68 67 66 64 64 63
73 74 73 73 72 72 71 71 71 72 72 72 72 72 72 73 74 73 73 73 72 73 72 71 71 72 72 72 71 70 68 65 62 57 57 59 62 72 71 70 70 69 69 70 70 70 68 66 64 61 60 59 57 56 57 58 63 66 65 64 64 62 62 63 66 67 66 65 67 67 68 70 69 69 70 69 69 68 69 69 68 66 65 65 64
73 73 73 72 72 71 71 70 70 72 74 73 73 73 74 74 74 73 73 72 72 72 72 72 72 72 72 72 71 69 68 66 63 57 56 57 59 67 69 68 67 70 69 69 67 67 68 66 65 62 58 58 57 56 56 58 62 66 65 63 63 63 62 63 65 68 67 66 66 67 67 67 66 67 69 70 69 70 70 69 68 67 66 65 64
73 73 73 72 71 71 71 71 73 74 74 74 73 73 74 74 73 73 73 72 69 69 70 71 70 72 72 71 70 69 69 68 66 59 57 56 57 60 67 67 65 69 72 67 68 68 68 66 65 62 57 57 56 54 54 57 60 66 64 57 56 58 63 65 66 67 66 66 66 66 66 66 65 65 66 66 68 68 68 67 67 68 68 67 67
72 72 72 71 71 70 70 71 73 73 73 73 73 73 74 73 72 71 71 70 70 69 69 69 70 69 70 71 70 69 69 68 67 65 58 56 56 57 59 64 61 70 70 67 68 69 68 67 66 64 57 54 53 54 55 59 65 62 54 56 57 59 63 66 66 65 66 65 65 65 66 65 65 65 66 67 66 67 68 68 68 68 68 67 67
72 72 71 71 71 72 71 72 73 73 73 73 73 72 71 71 72 71 70 70 69 68 69 69 68 68 69 70 69 69 68 67 67 66 63 56 55 56 57 58 60 65 70 68 68 69 68 66 65 56 55 52 52 53 55 61 62 56 55 57 60 65 65 64 63 63 62 62 63 63 63 63 64 64 65 66 67 67 68 68 68 68 67 66 67
73 71 70 70 72 72 72 71 72 72 72 72 72 71 71 70 69 69 68 69 69 68 69 68 69 69 70 70 69 69 68 68 67 66 64 63 58 56 58 59 60 60 70 68 67 66 62 58 55 55 54 53 52 55 58 63 59 59 59 61 59 60 61 61 61 61 60 58 58 59 59 60 62 62 63 65 68 70 68 68 68 69 68 67 67
73 72 71 71 71 71 71 70 71 72 71 72 71 70 70 70 69 69 69 69 70 68 70 70 70 70 70 69 69 69 69 69 69 68 67 66 64 60 58 60 68 73 67 67 67 61 59 58 56 56 57 59 64 67 66 67 62 60 60 60 59 58 59 58 59 59 57 56 56 56 56 58 59 60 62 63 64 68 67 64 64 64 64 64 63
72 73 72 70 70 70 70 70 70 70 71 72 72 70 69 70 68 68 68 68 68 68 69 68 69 68 69 69 69 69 69 69 70 69 68 70 70 67 69 70 71 72 66 65 67 68 69 67 66 61 61 63 65 66 66 64 63 61 56 56 59 57 57 59 57 56 56 55 55 54 56 56 58 60 60 60 60 61 61 61 60 59 61 63 62
71 71 70 70 70 70 69 70 65 60 60 59 59 63 64 62 61 61 63 67 68 68 68 68 68 68 68 68 68 68 67 64 62 62 61 61 65 65 64 65 65 65 62 61 63 66 69 67 67 69 68 68 66 67 65 61 59 57 59 57 60 56 56 53 52 54 56 56 56 56 57 57 55 54 55 55 56 57 58 58 58 60 61 60 59
70 68 70 72 71 68 64 62 61 60 58 57 56 55 55 61 61 59 58 57 58 63 67 68 67 67 67 67 67 66 63 61 60 53 57 51 58 62 60 59 59 62 61 55 61 67 69 69 68 67 62 60 59 58 57 57 57 57 57 54 55 52 52 49 49 52 54 55 54 54 53 53 53 52 52 51 55 55 56 57 59 60 59 59 58
70 70 70 70 71 71 63 63 62 61 59 58 58 57 55 48 52 58 57 56 53 52 56 64 63 61 59 58 61 63 61 59 51 46 44 44 45 46 47 45 47 54 53 52 61 66 64 64 64 59 58 56 53 53 52 52 52 51 51 53 52 49 50 50 48 49 50 52 51 50 52 49 48 49 49 50 51 51 53 55 55 56 57 55 52
70 69 70 70 70 67 63 65 63 63 61 61 60 60 59 56 46 48 52 53 50 47 48 51 54 57 61 58 55 51 52 48 44 43 44 43 43 42 42 43 44 45 47 56 62 63 61 58 57 56 55 51 51 49 49 48 50 47 46 46 47 47 49 49 48 48 48 48 49 50 48 47 48 49 48 48 48 48 49 51 52 54 52 51 51
69 70 70 71 69 69 66 67 64 64 65 64 63 62 61 59 57 49 47 50 48 46 46 46 47 50 53 57 60 55 50 45 44 44 44 44 43 42 42 42 43 44 45 50 60 60 56 56 54 51 50 48 48 49 47 45 47 46 46 46 46 47 48 48 50 45 47 46 47 48 46 46 47 48 47 47 48 47 48 49 50 49 50 48 49
69 69 69 69 70 70 67 67 66 65 64 65 64 63 62 61 59 57 55 47 47 46 46 46 46 46 47 46 47 49 49 47 46 44 42 41 41 41 43 47 47 43 51 62 59 56 54 52 47 48 47 46 47 47 49 46 46 46 46 48 47 49 51 52 53 48 47 48 48 46 45 46 47 47 47 47 47 46 48 47 47 48 48 47 47
69 69 69 70 69 70 70 68 67 67 66 66 65 64 63 62 61 60 58 56 54 49 46 45 45 44 43 43 44 44 43 44 44 43 43 43 42 42 44 53 47 47 49 55 50 51 50 47 46 48 48 50 47 48 50 50 49 52 49 49 48 51 56 54 52 48 47 47 46 46 46 45 46 45 45 45 45 46 45 45 45 46 45 46 45
71 71 70 70 70 70 69 69 70 68 67 66 65 64 64 64 64 63 61 58 55 53 50 51 48 44 51 47 43 43 44 44 45 44 44 44 44 43 45 58 59 55 54 52 52 50 49 49 49 51 50 49 51 51 49 51 51 49 48 48 48 48 53 48 51 53 49 47 47 47 47 47 45 45 44 44 43 43 44 44 43 44 45 44 45
70 71 70 70 70 70 70 70 68 68 67 66 66 65 65 64 63 61 59 57 55 52 50 50 49 50 48 45 43 43 43 43 43 44 43 43 43 45 59 55 50 51 51 53 53 53 52 52 52 54 53 53 52 51 51 49 49 49 53 52 48 50 50 48 50 49 49 48 46 48 46 45 44 43 42 42 42 43 42 42 42 43 44 43 44
71 72 71 70 71 70 70 70 70 70 67 66 66 65 64 63 62 60 58 56 54 53 51 52 52 52 53 53 57 46 44 43 43 43 42 42 42 58 50 51 51 51 52 51 53 53 53 53 54 52 51 50 49 49 49 49 51 50 51 51 53 52 48 49 53 51 52 48 45 46 46 44 44 43 41 42 43 43 42 42 43 44 45 46 46
70 72 71 71 70 69 68 68 68 67 68 68 67 65 64 63 62 60 58 57 56 54 55 55 55 54 53 55 53 53 54 50 47 48 48 50 56 55 54 53 54 54 53 54 54 55 55 52 50 50 50 51 51 51 50 51 51 49 48 50 52 50 46 51 51 50 54 47 44 46 46 44 44 43 44 42 43 43 43 43 42 42 43 44 43
71 68 67 67 68 69 68 68 69 68 68 67 68 66 65 63 61 60 58 57 57 56 56 57 58 57 56 56 58 55 56 53 55 54 54 53 55 53 53 53 54 55 53 53 52 52 49 50 51 52 53 51 53 53 52 49 50 52 53 52 48 48 49 46 46 49 49 45 45 45 45 44 44 44 44 43 42 42 42 42 43 42 42 42 42
68 68 67 66 67 67 68 68 68 67 66 66 65 65 64 64 62 61 61 61 60 59 58 58 57 57 59 59 58 58 55 53 52 52 55 53 54 56 56 53 52 52 53 52 51 52 50 51 54 53 56 56 55 54 58 54 50 50 50 48 48 47 47 46 46 45 44 45 46 46 45 45 44 44 43 43 43 43 43 42 43 43 42 42 42
68 68 68 66 66 67 67 67 66 66 66 66 65 65 64 64 64 64 62 61 59 58 56 54 54 55 54 52 47 46 60 55 53 53 53 55 52 53 53 52 50 50 51 52 54 55 55 56 55 57 55 57 57 56 52 49 48 46 46 46 46 45 44 45 46 45 45 45 44 44 44 44 44 43 42 43 45 44 43 43 42 41 42 42 41
68 67 67 66 66 67 67 66 66 66 66 65 65 64 64 64 63 61 60 59 58 56 50 48 50 51 54 48 47 46 58 53 52 54 51 50 52 54 54 55 56 56 50 50 52 52 51 53 56 55 50 50 49 49 48 47 47 45 45 45 46 45 44 44 45 46 46 44 44 44 44 44 45 45 44 46 42 42 42 41 41 42 42 41 41
68 68 67 67 66 67 67 67 67 67 66 66 65 65 64 63 62 61 60 59 56 52 50 49 48 52 54 47 52 49 54 56 49 52 50 51 54 56 53 50 49 51 54 56 50 54 52 52 51 48 49 51 51 49 47 48 49 46 45 46 46 46 45 44 44 45 45 45 44 45 44 43 44 43 43 43 41 42 42 42 42 42 42 42 42
68 67 66 66 65 66 66 66 65 65 65 64 64 63 62 61 60 60 59 56 53 51 47 45 47 50 52 53 53 54 54 51 52 49 53 51 52 49 49 50 49 51 51 52 53 57 54 51 48 54 52 50 51 52 48 48 49 47 47 46 46 46 46 45 45 45 45 44 44 44 44 44 45 43 43 44 43 42 42 42 42 42 42 42 41
66 66 65 64 64 63 63 63 63 63 62 62 61 59 59 57 56 55 53 52 53 51 47 46 47 48 50 54 55 52 50 48 50 50 51 49 49 49 48 49 50 56 50 50 52 52 52 50 48 50 51 50 52 53 51 51 50 49 47 47 46 46 45 46 46 46 46 46 44 44 44 43 43 43 42 42 43 43 42 42 42 43 43 42 42
65 65 64 63 63 63 62 62 61 60 59 57 55 54 55 55 54 52 51 51 51 50 50 50 51 51 50 50 48 48 49 50 48 47 47 46 47 48 49 47 49 51 49 48 52 53 50 52 49 47 50 54 51 50 51 53 52 51 52 51 48 47 47 47 48 48 47 47 46 45 45 45 45 45 45 44 43 43 43 44 43 43 43 43 43
63 63 63 62 62 62 61 60 60 59 56 55 55 55 54 52 52 52 52 50 48 49 46 46 47 47 48 51 48 49 46 46 47 47 49 48 49 48 49 48 50 48 48 49 53 49 51 50 50 51 49 50 50 53 51 51 49 46 45 44 44 43 43 47 45 44 45 45 46 45 45 45 44 44 44 44 44 44 44 43 43 43 43 43 43
63 62 62 62 62 61 61 60 59 59 56 58 55 52 52 51 51 49 48 48 48 47 46 47 48 47 47 46 46 45 46 46 45 48 48 47 47 49 54 52 49 47 49 50 51 50 49 50 51 50 50 52 51 50 50 46 44 44 42 40 40 40 40 40 42 41 42 44 44 45 45 44 44 44 44 45 44 44 43 43 43 42 42 42 42
60 60 60 60 60 61 59 57 58 60 55 51 49 48 48 47 46 46 46 46 45 47 46 46 45 45 47 48 45 44 46 47 46 45 47 47 50 48 53 52 51 50 48 49 48 51 55 54 52 52 50 53 49 47 46 45 42 40 40 39 39 39 39 39 39 39 39 40 40 40 41 42 42 43 44 44 44 44 44 44 43 43 43 43 44
61 61 60 61 61 61 59 59 55 51 50 49 48 47 48 47 46 46 47 47 46 47 46 46 45 44 44 44 45 46 47 46 46 43 47 49 47 50 48 50 52 51 52 50 48 49 50 54 56 52 50 50 49 47 44 42 41 39 39 38 38 38 38 38 38 37 37 38 39 38 39 40 41 41 42 42 43 43 43 44 44 43 43 43 43
61 61 61 61 60 56 52 51 51 51 49 47 47 47 47 47 46 45 46 46 45 47 46 46 47 44 45 45 48 47 46 47 46 48 48 48 48 48 49 51 51 52 51 53 51 49 51 51 48 48 50 49 47 45 43 41 40 39 39 39 37 36 35 35 37 35 35 35 39 39 39 39 41 41 41 41 41 41 42 43 43 43 43 43 43